Location: Unspecified
(49.9820°N, 20.4363°E)
Time: 09:48:34
(UTC+02:00)

ISS - Pass Details

Date: 17 July 2018
Orbit: 402 x 408 km, 51.6° (Epoch: 23 July)

Event Time Altitude Azimuth Distance (km) Brightness Sun altitude
Exits shadow 23:17:27 14° 89° (E) 1,236 -1.6 -16.4°
Drops below altitude 10° 23:18:06 10° 83° (E) 1,469 -1.1 -16.4°
Sets 23:20:19 0° 73° (ENE) 2,334 0.0 -16.5°
